This is the latest recevied weather packets stored in our database for station/object NN5DX-13. If no packets are shown the sender has not sent any weather packets the latest 10 day(s).
| Time | Temp. | Humidity | Pressure | Rain* | Wind** | Luminosity | Snow |
|---|---|---|---|---|---|---|---|
| 1777571116 | 23.89° C | 60% | 1012.7 hPa | 0 mm | - | - | - |
| 1777570516 | 23.33° C | 60% | 1012.1 hPa | 0 mm | - | - | - |
| 1777570216 | 23.89° C | 61% | 1012.2 hPa | 0 mm | - | - | - |
| 1777569916 | 23.33° C | 62% | 1012.1 hPa | 0 mm | - | - | - |
| 1777569616 | 23.33° C | 63% | 1012.2 hPa | 0 mm | - | - | - |
| 1777569316 | 23.33° C | 63% | 1012.4 hPa | 0 mm | - | - | - |
| 1777569016 | 22.78° C | 63% | 1012.5 hPa | 0 mm | - | - | - |
| 1777568716 | 22.78° C | 64% | 1012.8 hPa | 0 mm | - | - | - |
| 1777567516 | 22.22° C | 66% | 1011.9 hPa | 0 mm | - | - | - |
| 1777566916 | 22.22° C | 65% | 1012.4 hPa | 0 mm | - | - | - |
| 1777566616 | 21.67° C | 68% | 1012.5 hPa | 0 mm | - | - | - |
| 1777566316 | 21.67° C | 67% | 1012.5 hPa | 0 mm | - | - | - |
| 1777566016 | 21.11° C | 68% | 1012.5 hPa | 0 mm | - | - | - |
| 1777565716 | 20.56° C | 71% | 1012.4 hPa | 0 mm | - | - | - |
| 1777565416 | 20.56° C | 70% | 1012.3 hPa | 0 mm | - | - | - |
| 1777564816 | 20° C | 72% | 1012.3 hPa | 0 mm | - | - | - |
| 1777564516 | 19.44° C | 73% | 1012.2 hPa | 0 mm | - | - | - |
| 1777563616 | 18.89° C | 74% | 1011.9 hPa | 0 mm | - | - | - |
| 1777563316 | 18.33° C | 75% | 1011.7 hPa | 0 mm | - | - | - |
| 1777563016 | 18.33° C | 76% | 1011.7 hPa | 0 mm | - | - | - |
| 1777562717 | 17.78° C | 76% | 1012 hPa | 0 mm | - | - | - |
| 1777562416 | 17.78° C | 77% | 1012 hPa | 0 mm | - | - | - |
| 1777561516 | 17.22° C | 77% | 1012.1 hPa | 0 mm | - | - | - |
| 1777561216 | 17.22° C | 78% | 1012.1 hPa | 0 mm | - | - | - |
| 1777560316 | 17.22° C | 78% | 1011.9 hPa | 0 mm | - | - | - |
* Rain latest hour (hover to see other rain measurements)
** Current wind speed in m/s (hover to see current wind gust speed)